Preview of NWS' New Version of Forecast
This preview is not operational and should not be used for support decisions.
Latest weather observations around

Buffalo, Greater Buffalo International Airport (KBUF)

Using English Units (Switch to International System of Units)
Date/ Time (EDT) Wind (mph) Vis. (mi) Weather Sky Cond. Temp (°F) Rel. Humidity Wind Chill (°F) Heat Index (°F) Pressure Precip. (in)
Air Dwpt 6 hour Altimeter (inHg) Sea level (inHg) 1 hr 3 hr 6 hr
Max Min
Jul 21 22:54 SW 7 10 Mostly Clear FEW200 72 63     73%   72 29.92 29.91      
Jul 21 21:54 SW 8 10 Partly Cloudy FEW120 SCT200 73 64     73%   73 29.92 29.91      
Jul 21 20:54 SW 8 10 Partly Cloudy FEW120 SCT200 74 63     69%   74 29.91 29.9      
Jul 21 19:54 SW 11 10 Partly Cloudy FEW035 SCT120 SCT200 77 60     56%   77 29.92 29.91      
Jul 21 18:54 SW 10 10 Mostly Cloudy FEW035 BKN120 BKN200 78 58     50%   78 29.91 29.89      
Jul 21 17:54 SW 9 10 Partly Cloudy FEW035 FEW120 FEW150 SCT220 80 61     52%   81 29.89 29.88      
Jul 21 16:54 WSW 11 10 Mostly Cloudy FEW035 SCT120 SCT150 BKN220 80 61     52%   81 29.91 29.9      
Jul 21 15:54 SW 15 10 Mostly Cloudy FEW030 FEW037 SCT120 BKN150 BKN190 BKN270 80 66     62%   82 29.9 29.88      
Jul 21 14:54 WSW 11 10 Mostly Cloudy SCT023 SCT120 SCT150 BKN190 BKN250 80 67     64%   82 29.9 29.88      
Jul 21 13:54 WSW 14 10 Mostly Cloudy FEW014 SCT040 BKN150 BKN200 78 69     74%   79 29.91 29.89      
Jul 21 12:54 WSW 11 10 Mostly Cloudy FEW027 BKN039 BKN170 BKN220 77 69     77%   78 29.91 29.9      
Jul 21 12:19 WSW 11 10 Mostly Cloudy FEW021 SCT028 BKN037 BKN180 BKN270 77 69     77%   78 29.91        
Jul 21 11:54 WSW 11 10 Mostly Cloudy BKN019 BKN024 BKN060 BKN200 76 68     76%   77 29.91 29.89      
Jul 21 10:54 W 10 10 Mostly Cloudy BKN020 BKN025 76 67     74%   77 29.89 29.87      
Jul 21 10:17 WNW 10 10 Mostly Cloudy BKN021 BKN150 77 67     71%   78 29.88        
Jul 21 09:54 W 9 10 Partly Cloudy FEW015 SCT021 SCT160 SCT200 SCT280 77 67     71%   78 29.9 29.88      
Jul 21 08:54 WNW 10 10 Mostly Cloudy FEW014 BKN018 BKN023 75 68     79%   76 29.88 29.87      
Jul 21 08:32 W 11 10 Mostly Cloudy BKN018 75 68     79%   76 29.88        
Jul 21 07:54 W 10 10 Mostly Cloudy SCT011 SCT014 BKN150 76 69     79%   77 29.87 29.85      
Jul 21 07:41 WSW 10 10 Partly Cloudy FEW012 SCT017 SCT150 SCT290 76 70     82%   77 29.87        
Jul 21 07:26 WSW 8 10 Mostly Cloudy BKN012 BKN017 BKN290 75 70     84%   76 29.88        
Jul 21 07:04 WSW 9 10 Partly Cloudy FEW008 SCT065 SCT170 SCT290 74 70     87%   75 29.87        
Jul 21 06:54 WSW 8 10 Partly Cloudy FEW010 SCT065 SCT210 SCT290 74 70     87%   75 29.87 29.85      
Jul 21 05:54 WSW 6 10 Cloudy OVC070 74 68     82%   75 29.85 29.83      
Jul 21 04:54 WSW 9 10 Mostly Clear FEW090 FEW230 FEW290 74 68     82%   75 29.84 29.82      
Jul 21 03:54 W 11 10 Partly Cloudy FEW075 FEW090 SCT230 SCT290 75 69     82%   76 29.83 29.82      
Jul 21 02:54 SW 11 10 Cloudy BKN095 BKN160 OVC230 76 68     76%   77 29.82 29.8      
Jul 21 01:54 SW 9 10 Cloudy FEW100 FEW140 OVC230 75 68     79%   76 29.8 29.78 0   0
Jul 21 00:54 SSW 10 10 Light Rain FEW090 SCT110 BKN160 OVC280 76 69     79%   77 29.78 29.77 0    
Jul 20 23:54 SSW 13 10 Mostly Cloudy SCT016 BKN100 BKN200 77 71     82%   78 29.83 29.81      
Jul 20 22:54 W 13 10 Mostly Cloudy SCT040 BKN080 BKN100 79 71     77%   82 29.89 29.87      
Jul 20 22:30 SW 11 10 Mostly Cloudy SCT040 SCT150 BKN250 80 70     71%   83 29.85        
Jul 20 21:54 SW 11 10 Mostly Cloudy SCT040 SCT150 BKN250 79 70     74%   82 29.85 29.83      
Jul 20 20:54 SW 13 10 Mostly Cloudy FEW080 SCT150 BKN250 78 71     79%   79 29.84 29.83      
Jul 20 19:54 SW 15 10 Partly Cloudy FEW055 FEW080 SCT250 80 71     74%   84 29.83 29.81      
Jul 20 18:54 WSW 18 10 Partly Cloudy FEW055 FEW080 SCT250 81 71     72%   85 29.84 29.83      
Jul 20 17:54   10 Clear CLR 83 70     65%   87 29.85 29.83      
Jul 20 16:54 WSW 18 10 Mostly Cloudy FEW055 SCT090 BKN250 81 71     72%   85 29.85 29.83   0  
Jul 20 15:54   10 Mostly Cloudy FEW055 SCT080 SCT150 BKN200 82 71     69%   86 29.85 29.83      
Jul 20 14:54   10 Partly Cloudy FEW055 FEW150 SCT200 83 70     65%   87 29.84 29.82      
Jul 20 13:54   10 Partly Cloudy FEW050 FEW150 SCT200 84 70     63%   88 29.83 29.81      
Jul 20 12:54 WSW 16 10 Clear   84 70     63%   88 29.84 29.82      
Jul 20 11:54 WSW 16 10 Mostly Cloudy FEW028 FEW050 SCT140 BKN200 84 72     67%   90 29.85 29.83      
Jul 20 11:23 SW 11 10 Mostly Cloudy SCT028 SCT050 SCT130 BKN200 83 73     72%   89 29.85        
Jul 20 10:54 W 13 10 Cloudy BKN027 OVC045 83 72     70%   88 29.86 29.84      
Jul 20 09:54 WSW 18 10 Mostly Cloudy FEW040 BKN130 BKN200 81 72     74%   85 29.85 29.83      
Jul 20 08:54 SW 15 10 Cloudy FEW031 SCT038 BKN130 OVC180 79 72     79%   82 29.87 29.85      
Jul 20 07:54 SW 10 10 Cloudy BKN130 OVC170 78 70     76%   79 29.86 29.84      
Jul 20 06:54 SW 8 10 Cloudy BKN130 OVC170 76 69     79%   77 29.86 29.85      
Jul 20 05:54 SW 14 10 Cloudy FEW150 SCT200 OVC250 76 68     76%   77 29.86 29.85      
Jul 20 04:54 SW 10 10 Cloudy FEW055 OVC170 75 67     76%   76 29.86 29.85      
Jul 20 04:01   10 Mostly Cloudy SCT012 SCT045 BKN055 76 70     82%   77 29.88        
Jul 20 03:54   10 Cloudy BKN010 BKN017 BKN060 OVC130 76 71     85%   77 29.87 29.86      
Jul 20 03:33   10 Cloudy BKN012 BKN048 BKN060 OVC130 77 72     84%   78 29.89        
Jul 20 02:54 SW 11 10 Cloudy BKN060 OVC100 78 71     79%   79 29.87 29.85      
Jul 20 01:54 SSW 8 10 Cloudy FEW050 SCT060 BKN140 OVC250 79 71     77%   82 29.85 29.83      
Jul 20 00:54 SW 8 10 Mostly Cloudy BKN075 BKN170 BKN280 79 71     77%   82 29.87 29.85      
Jul 19 23:54 SW 9 10 Cloudy FEW130 FEW160 OVC290 79 72     79%   82 29.86 29.84      
Jul 19 22:54 SW 8 10 Cloudy FEW100 FEW140 OVC280 79 72     79%   82 29.86 29.84      
Jul 19 21:54 SSW 9 10 Cloudy FEW035 BKN100 BKN140 OVC250 80 73     79%   84 29.86 29.85      
Jul 19 20:54 SW 11 10 Cloudy FEW027 BKN120 BKN150 OVC280 81 75     82%   87 29.85 29.83      
Jul 19 19:54 SW 13 10 Cloudy BKN130 BKN160 OVC280 80 75     85%   85 29.85 29.83     0
Jul 19 18:54 SSW 11 10 Cloudy FEW050 FEW110 SCT170 OVC280 80 74     82%   85 29.85 29.83      
Jul 19 17:54 S 9 10 Cloudy FEW017 FEW055 FEW180 OVC280 78 72     82%   79 29.85 29.83      
Jul 19 16:54 SW 10 10 Cloudy FEW055 SCT130 BKN180 OVC240 75 70     84%   76 29.84 29.83 0 0  
Jul 19 16:28 SSW 11 10 Cloudy FEW018 SCT049 SCT130 BKN160 OVC210 74 69     85%   75 29.84   0    
Jul 19 15:54 SW 10 10 Thunderstorms and Rain FEW011 SCT040 BKN110 OVC150 73 68     83%   74 29.85 29.84 0    
Jul 19 15:22 S 10 7 Thunderstorms and Rain FEW011 BKN045 BKN085 OVC130 73 67     81%   74 29.86   0    
Notice The following observation data may not be complete
Jul 19 15:11 W 15 1.5 Thunderstorms and Heavy Rain SCT011 BKN045 BKN085 OVC130          %     29.9   0    
Jul 19 14:54 WSW 15 10 Thunderstorms SCT011 SCT040 BKN130 BKN180 BKN250 80 74     82%   85 29.89 29.88      
Jul 19 14:49   10 Thunderstorms SCT011 SCT040 BKN130 BKN180 BKN250 81 73     79%   85 29.9        
Jul 19 14:38 SW 14 10 Mostly Cloudy SCT011 BKN037 BKN180 BKN250 81 74     79%   86 29.88        
Jul 19 13:54 WSW 18 10 Mostly Cloudy BKN011 82 74     77%   88 29.86 29.84      
Jul 19 12:54 WSW 15 10 Cloudy OVC011 81 74     79%   86 29.87 29.85      
Jul 19 11:54   10 Mostly Cloudy BKN011 BKN060 81 74     79%   86 29.86 29.84      
Jul 19 10:54 WSW 20 10 Mostly Cloudy and Windy BKN014 BKN060 81 73     77%   86 29.87 29.85      
Jul 19 10:26   10 Mostly Cloudy BKN014 BKN060 81 73     77%   86 29.86        
Jul 19 09:54 WSW 14 10 Mostly Cloudy FEW016 BKN055 82 73     74%   87 29.86 29.84      
Jul 19 08:54 WSW 18 10 Partly Cloudy FEW016 SCT055 SCT280 80 72     76%   84 29.85 29.83      
Jul 19 07:54 SW 14 10 Mostly Clear FEW040 FEW300 79 71     77%   82 29.84 29.83      
Jul 19 06:54 WSW 14 10 Mostly Clear FEW300 78 71     79%   79 29.84 29.82      
Jul 19 05:54 SW 14 10 Clear CLR 78 71     79%   79 29.82 29.81      
Jul 19 04:54 SW 14 10 Clear CLR 78 70     76%   79 29.82 29.8      
Jul 19 03:54 SW 14 10 Clear CLR 78 69     74%   79 29.82 29.8      
Jul 19 02:54 SW 14 10 Clear CLR 79 69     72%   80 29.84 29.82      
Jul 19 01:54 S 7 10 Mostly Clear FEW040 75 68     79%   76 29.85 29.83      
Jul 19 00:54 SSW 8 10 Mostly Clear FEW300 75 68     79%   76 29.85 29.83      
Jul 18 23:54 SSW 8 10 Mostly Clear FEW200 FEW280 75 69     82%   76 29.86 29.84      
Jul 18 22:54 SSW 6 10 Mostly Cloudy BKN200 BKN280 76 68     76%   77 29.87 29.86      
Jul 18 21:54 SSW 5 10 Mostly Cloudy FEW150 BKN200 BKN280 78 68     71%   79 29.88 29.86      
Jul 18 20:54 SW 6 10 Partly Cloudy FEW040 FEW150 FEW220 SCT280 79 67     67%   80 29.86 29.84      
Jul 18 19:54 SSW 6 10 Partly Cloudy FEW040 FEW160 SCT200 SCT270 81 66     61%   83 29.85 29.83      
Jul 18 18:54 SSW 10 10 Partly Cloudy FEW040 FEW150 FEW200 SCT270 81 67     62%   83 29.86 29.84      
Jul 18 17:54 SW 8 10 Partly Cloudy FEW040 FEW150 FEW220 SCT270 83 68     61%   86 29.87 29.85      
Jul 18 16:54 SW 10 10 Partly Cloudy SCT040 SCT070 SCT220 SCT280 84 68     59%   87 29.9 29.88      
Jul 18 15:54 SW 11 10 Mostly Clear FEW040 FEW220 84 68     59%   87 29.92 29.91      
Jul 18 14:54 SSW 7 10 Partly Cloudy FEW028 FEW037 SCT220 84 67     57%   87 29.93 29.91      
Jul 18 13:54 W 8 10 Mostly Cloudy FEW028 SCT037 BKN200 82 68     63%   85 29.93 29.91      
Jul 18 12:54 Calm 10 Partly Cloudy FEW025 SCT032 82 68     63%   85 29.92 29.91      
Jul 18 12:23 5 10 Mostly Cloudy FEW025 BKN032 80 68     67%   83 29.93        
Jul 18 11:54 WNW 3 10 Mostly Cloudy SCT021 BKN028 80 68     67%   83 29.95 29.93      
Jul 18 11:16 E 5 10 Partly Cloudy SCT013 SCT028 77 69     77%   78 29.94        
Jul 18 10:54 3 10 Mostly Cloudy BKN011 BKN030 76 69     79%   77 29.96 29.94      
Jul 18 10:23 E 6 10 Mostly Cloudy BKN011 BKN030 75 68     79%   76 29.96        
Jul 18 09:54 NNE 5 10 Cloudy OVC008 74 68     82%   75 29.98 29.96      
Jul 18 08:54 ENE 7 7 Cloudy OVC007 72 68     87%   73 29.95 29.94      
Jul 18 07:54 ENE 7 5 Fog/Mist OVC005 72 68     87%   73 29.96 29.95      
Jul 18 07:28 ENE 8 6 Fog/Mist OVC005 72 69     91%   73 29.95        
Jul 18 07:01 NE 6 5 Fog/Mist OVC004 71 69     93%   72 29.96        
Jul 18 06:54 NNE 6 6 Fog/Mist OVC005 72 69     91%   73 29.95 29.94      
Jul 18 06:34 NE 7 8 Cloudy BKN005 OVC028 71 69     93%   72 29.94        
Jul 18 06:25 NE 3 10 Cloudy SCT005 OVC029 72 69     91%   73 29.94        
Jul 18 06:05 NNE 3 10 Cloudy FEW005 OVC030 72 69     91%   73 29.93        
Jul 18 05:54 NNE 3 10 Cloudy OVC030 71 69     93%   72 29.93 29.92      
Jul 18 05:46 NE 3 10 Cloudy OVC030 71 69     93%   72 29.93        
Jul 18 05:20 NNE 3 10 Cloudy SCT005 OVC029 72 69     91%   73 29.93        
Jul 18 04:54 NE 6 10 Cloudy OVC005 71 69     93%   72 29.93 29.92      
Jul 18 04:45 NE 6 10 Cloudy OVC005 71 69     93%   72 29.93        
Jul 18 03:54 NNE 6 9 Cloudy OVC003 71 69     93%   72 29.92 29.91      
Jul 18 03:08 ENE 6 7 Mostly Cloudy BKN004 71 69     93%   72 29.91        
Jul 18 02:54 NNE 3 8 Mostly Clear FEW007 FEW250 71 69     93%   72 29.92 29.9      
Jul 18 01:54 ENE 5 10 Partly Cloudy FEW007 SCT250 72 69     91%   73 29.91 29.9      
Jul 18 00:54 ENE 6 10 Mostly Cloudy FEW007 BKN250 73 70     90%   74 29.92 29.91      
Jul 18 00:37 E 7 10 Mostly Cloudy FEW006 BKN250 73 70     90%   74 29.91        
Jul 18 00:28 E 8 10 Mostly Cloudy BKN006 BKN250 73 70     90%   74 29.91        
Jul 18 00:18 ENE 7 10 Mostly Cloudy SCT006 BKN250 73 70     90%   74 29.91        
Jul 17 23:54 E 8 10 Cloudy OVC006 74 71     91%   75 29.91 29.9      
Jul 17 23:26 ENE 10 10 Mostly Cloudy BKN007 74 71     91%   75 29.92        
Jul 17 23:18 NE 6 10 Mostly Clear FEW007 FEW230 73 70     90%   74 29.92        
Jul 17 22:54 NE 7 10 Mostly Clear FEW050 FEW230 74 71     91%   75 29.92 29.91      
Jul 17 21:54 NE 6 10 Mostly Clear FEW050 FEW230 75 71     88%   76 29.91 29.9      
Jul 17 20:54 NE 7 10 Mostly Clear FEW024 FEW048 FEW230 77 71     82%   78 29.88 29.87      
Jul 17 20:33 NE 7 10 Mostly Cloudy FEW025 SCT036 BKN047 BKN230 78 71     79%   79 29.88        
Jul 17 20:15 NNE 10 10 Mostly Cloudy BKN025 BKN031 BKN230 79 71     77%   82 29.87        
Jul 17 19:54 NNE 8 10 Mostly Cloudy SCT025 BKN031 BKN044 BKN220 81 70     69%   84 29.87 29.85     0
Jul 17 18:54 ENE 5 10 Mostly Cloudy FEW025 BKN037 BKN045 BKN170 81 70     69%   84 29.86 29.85      
Jul 17 18:36 ENE 5 10 Cloudy SCT029 OVC037 81 70     69%   84 29.86        
Jul 17 17:54 Calm 10 Mostly Cloudy BKN028 BKN037 BKN170 82 70     67%   86 29.86 29.84      
Jul 17 16:54 Calm 10 Mostly Cloudy BKN017 BKN040 BKN170 81 71     72%   85 29.86 29.85   0  
Jul 17 16:36 S 3 10 Mostly Cloudy BKN017 BKN040 BKN170 80 71     74%   84 29.87        
Jul 17 15:54 Calm 10 Mostly Cloudy FEW013 FEW050 FEW110 BKN150 79 71     77%   82 29.88 29.86 0    
Jul 17 15:00 W 9 10 Light Rain FEW011 SCT022 BKN050 BKN130 77 71     82%   78 29.9   0    
Jul 17 14:54 W 8 10 Light Rain FEW011 SCT022 BKN050 BKN130 76 71     85%   77 29.9 29.89 0    
Jul 17 14:40 W 7 10 Light Rain FEW011 SCT022 BKN050 BKN130 76 71     85%   77 29.9   0    
Jul 17 13:54 SSW 6 10 Light Rain BKN011 BKN022 OVC110 76 72     88%   77 29.9 29.89 0   0
Jul 17 13:44 S 7 10 Light Rain BKN011 BKN022 OVC110 76 71     85%   77 29.91   0    
Jul 17 12:54 S 6 10 Light Rain FEW009 SCT045 BKN070 OVC130 75 71     88%   76 29.92 29.91 0    
Jul 17 11:54 WSW 6 5 Light Rain and Fog/Mist FEW017 FEW047 OVC070 73 69     87%   74 29.93 29.92 0    
Jul 17 11:14 SSW 6 9 Light Rain FEW017 SCT043 BKN070 OVC130 74 70     87%   75 29.93   0    
Jul 17 10:54 SW 8 7 Light Rain BKN013 BKN021 BKN070 OVC130 74 70     87%   75 29.93 29.92 0 0  
Jul 17 10:40 SW 9 10 Light Rain BKN011 BKN019 BKN070 OVC130 74 70     87%   75 29.93   0    
Jul 17 09:54 SW 9 10 Light Rain BKN009 BKN060 OVC100 73 71     94%   74 29.93 29.92 0    
Jul 17 09:15 SW 10 4 Light Rain and Fog/Mist BKN007 OVC013 72 70     93%   73 29.93   0    
Jul 17 08:54   1.5 Rain and Fog/Mist BKN009 OVC015 72 69     91%   73 29.94 29.92 0    
Jul 17 08:51   1.5 Rain and Fog/Mist BKN009 OVC015 72 70     94%   73 29.94   0    
Jul 17 08:42 SW 13 8 Light Rain FEW009 BKN015 OVC028 73 69     87%   74 29.94   0    
Jul 17 07:54 SW 9 10 Cloudy BKN023 BKN028 OVC055 74 68     82%   75 29.93 29.91 0   0
Jul 17 07:24 SW 9 10 Light Rain BKN026 BKN031 BKN075 OVC140 75 68     79%   76 29.92   0    
Jul 17 06:54 SW 8 10 Cloudy FEW032 SCT060 BKN120 OVC150 74 68     82%   75 29.91 29.9      
Jul 17 05:54 SSW 6 10 Cloudy BKN060 BKN110 OVC140 73 68     84%   74 29.92 29.91      
Jul 17 04:54 SSW 7 10 Cloudy SCT075 BKN090 OVC110 72 69     91%   73 29.91 29.9   0  
Jul 17 03:54 SSW 8 10 Cloudy SCT075 BKN120 OVC150 72 69     91%   73 29.91 29.9      
Jul 17 02:54 SW 10 10 Cloudy FEW010 SCT150 OVC180 73 70     90%   74 29.93 29.91 0    
Jul 17 01:54 SW 11 10 Clear   73 69     87%   74 29.95 29.93 0   0
Jul 17 00:54 SW 14 10 Light Rain SCT070 SCT120 OVC150 73 68     84%   74 29.96 29.95 0    
Jul 16 23:54 SSW 9 10 Light Rain FEW050 SCT070 OVC140 75 71     88%   76 29.95 29.93 0    
Jul 16 22:54 SSW 8 10 Light Rain FEW050 SCT060 SCT110 OVC160 76 69     79%   77 29.95 29.94 0 0  
Jul 16 21:54 S 9 10 Cloudy FEW055 BKN100 BKN160 OVC270 77 68     74%   78 29.95 29.93 0    
Jul 16 18:54 SW 10 10 Mostly Cloudy FEW070 BKN095 BKN180 BKN280 80 65     60%   82 29.96 29.94      
Jul 16 17:54 SW 15 10 Mostly Cloudy FEW040 SCT070 BKN130 BKN190 BKN280 80 66     62%   82 29.97 29.95 0    
Jul 16 16:54 SW 15 10 Mostly Cloudy FEW040 SCT070 SCT130 BKN170 BKN280 80 67     64%   82 29.99 29.98      
Jul 16 15:54 SW 13 10 Mostly Cloudy FEW038 FEW055 BKN100 BKN180 BKN280 78 68     71%   79 30.01 29.99      
Jul 16 15:30   10 Mostly Cloudy FEW042 SCT055 BKN110 BKN180 BKN280 79 67     67%   80 30        
Jul 16 14:59 WSW 15 10 Mostly Cloudy FEW042 SCT055 BKN110 BKN180 BKN280 86 64     48%   87 30        
Jul 16 14:54 W 16 10 Partly Cloudy SCT042 SCT055 86 63     46%   87 30 29.98      
Jul 16 13:54 SW 13 10 Mostly Cloudy FEW029 FEW120 BKN180 BKN280 86 68     55%   89 30 29.98      
Jul 16 12:54 WSW 14 10 Partly Cloudy FEW029 FEW120 SCT180 SCT280 84 69     61%   88 30.02 30.01      
Jul 16 11:54 SW 15 10 Partly Cloudy FEW029 FEW120 FEW180 SCT280 82 69     65%   85 30.02 30.01      
Jul 16 10:54 SW 16 10 Mostly Clear FEW026 FEW120 FEW190 FEW290 81 69     67%   84 30.02 30      
Jul 16 09:54 WSW 17 10 Mostly Clear FEW110 FEW180 FEW280 80 68     67%   83 30.02 30      
Jul 16 08:54 SW 14 10 Mostly Clear FEW100 FEW170 FEW270 79 67     67%   80 30.01 30      
Jul 16 07:54 SW 14 10 Partly Cloudy FEW075 FEW100 SCT250 77 65     66%   78 30.01 30      
Jul 16 06:54 SSW 9 10 Partly Cloudy FEW075 SCT100 73 63     71%   73 30 29.99      
Jul 16 05:54 SSW 8 10 Cloudy SCT075 OVC100 72 60     66%   72 30 29.99      
Jul 16 04:54 S 8 10 Partly Cloudy FEW050 SCT100 SCT250 72 60     66%   72 30 29.98      
Jul 16 03:54 SSW 9 10 Mostly Cloudy FEW050 SCT100 BKN250 72 58     61%   72 29.99 29.98      
Jul 16 02:54 S 8 10 Cloudy SCT050 OVC100 70 56     61%     30 29.99      
Jul 16 01:54 S 6 10 Cloudy SCT055 BKN095 OVC250 69 57     65%     30.03 30.02      
Jul 16 00:54 SE 8 10 Clear   70 53     55%     30.03 30.02      
Jul 15 23:54 SE 7 10 Partly Cloudy SCT130 SCT290 69 54     59%     30.05 30.03      
Jul 15 22:54 S 8 10 Mostly Cloudy SCT160 BKN250 BKN290 71 51     49%   70 30.05 30.04      
Jul 15 21:54 S 7 10 Partly Cloudy FEW130 FEW230 SCT290 71 55     57%   71 30.05 30.04      
Jul 15 20:54 S 6 10 Mostly Cloudy FEW130 FEW230 BKN290 71 56     59%   71 30.05 30.04      
Jul 15 19:54 SSW 8 10 Mostly Cloudy FEW100 FEW230 BKN300 75 50     41%   74 30.05 30.04      
Jul 15 18:54 WSW 10 10 Mostly Cloudy FEW060 FEW100 FEW200 BKN300 77 49     37%   76 30.05 30.04      
Jul 15 17:54 SW 8 10 Mostly Cloudy FEW060 FEW180 BKN300 80 48     33%   79 30.05 30.04      
Jul 15 16:54 WSW 11 10 Mostly Cloudy FEW060 FEW140 BKN300 80 50     35%   79 30.08 30.07      
Jul 15 15:54 WSW 14 10 Mostly Cloudy FEW060 BKN300 80 52     38%   80 30.08 30.07      
Jul 15 14:54 SW 9 10 Partly Cloudy FEW055 SCT300 80 56     44%   80 30.09 30.08      
Jul 15 13:54 3 10 Partly Cloudy FEW055 SCT300 80 53     39%   80 30.1 30.09      
Jul 15 12:54 3 10 Partly Cloudy FEW040 SCT300 78 57     48%   78 30.12 30.11      
Jul 15 11:54 W 6 10 Mostly Cloudy SCT037 BKN300 76 59     56%   76 30.13 30.12      
Jul 15 10:54 SW 5 10 Mostly Cloudy SCT035 BKN300 75 59     57%   75 30.13 30.12      
Jul 15 09:54 WSW 7 10 Mostly Cloudy SCT030 BKN300 73 62     68%   73 30.14 30.13      
Jul 15 08:54 SW 7 10 Partly Cloudy FEW025 SCT300 70 63     78%     30.13 30.12      
Jul 15 07:54 SSW 5 10 Partly Cloudy SCT300 66 61     84%     30.13 30.12      
Jul 15 06:54 S 5 10 Mostly Clear FEW300 62 59     90%     30.11 30.1      
Jul 15 05:54 Calm 10 Clear CLR 60 58     93%     30.1 30.09      
Jul 15 04:54 ESE 3 10 Clear CLR 62 58     86%     30.09 30.08      
Jul 15 03:54 Calm 10 Clear CLR 63 60     90%     30.09 30.08      
Jul 15 02:54 Calm 10 Clear CLR 65 60     84%     30.1 30.09      
Jul 15 01:54 SSE 3 10 Clear CLR 66 62     87%     30.09 30.08      
Jul 15 00:54 SE 3 10 Clear CLR 67 62     84%     30.08 30.07      
Jul 14 23:54 WSW 5 10 Clear CLR 69 63     81%     30.1 30.08      
Jul 14 22:54 SW 6 10 Mostly Clear FEW250 70 62     76%     30.1 30.09      
Jul 14 21:54 WSW 9 10 Mostly Clear FEW250 70 61     73%     30.09 30.08      
Jul 14 20:54 SW 11 10 Partly Cloudy FEW060 SCT250 71 60     68%   71 30.08 30.07      
Jul 14 19:54 WSW 13 10 Mostly Cloudy FEW060 BKN250 74 60     62%   74 30.08 30.07      
Jul 14 18:54 WSW 11 10 Partly Cloudy FEW060 SCT250 76 60     58%   76 30.07 30.06      
Jul 14 17:54 WSW 15 10 Mostly Cloudy SCT060 BKN250 77 59     54%   77 30.07 30.06      
Jul 14 16:54 WSW 15 10 Mostly Cloudy FEW044 SCT055 BKN250 79 59     50%   79 30.07 30.06      
Jul 14 15:54 SW 10 10 Partly Cloudy SCT045 SCT300 76 59     56%   76 30.08 30.07      
Jul 14 14:54 WSW 10 10 Partly Cloudy SCT050 SCT220 SCT270 76 59     56%   76 30.07 30.06      
Jul 14 13:54 NNW 16 10 Partly Cloudy FEW040 SCT050 SCT220 SCT280 79 54     42%   79 30.07 30.06      
Jul 14 12:54 W 8 10 Mostly Cloudy FEW042 FEW049 SCT230 BKN280 77 58     52%   77 30.08 30.06      
Jul 14 11:54 6 10 Partly Cloudy FEW040 SCT170 SCT210 SCT280 78 57     48%   78 30.08 30.06      
Jul 14 10:54 WNW 6 10 Mostly Clear FEW035 FEW230 FEW300 74 58     57%   74 30.08 30.07      
Jul 14 09:54 WNW 5 10 Mostly Clear FEW030 FEW065 FEW250 73 59     61%   73 30.08 30.06      
Jul 14 08:54 5 10 Mostly Clear FEW065 FEW170 FEW230 FEW300 70 57     63%     30.06 30.05      
Jul 14 07:54 WNW 8 10 Mostly Clear FEW065 FEW150 FEW300 67 53     61%     30.04 30.03      
Jul 14 06:54 W 6 10 Mostly Clear FEW050 65 50     58%     30.02 30.01      
Jul 14 05:54 W 6 10 Mostly Clear FEW050 64 48     56%     30.01 30      
Jul 14 04:54 WSW 7 10 Mostly Clear FEW060 66 49     54%     29.99 29.98      
Jul 14 03:54 W 6 10 Partly Cloudy SCT060 68 50     53%     29.99 29.97      
Jul 14 02:54 WNW 7 10 Mostly Cloudy FEW035 BKN065 71 53     53%   70 29.98 29.96      
Jul 14 01:54 NW 9 10 Cloudy OVC033 73 63     71%   73 29.97 29.95      
Jul 14 00:54 WNW 7 10 Mostly Cloudy BKN032 BKN075 73 66     79%   74 29.95 29.93      
Jul 13 23:54 WSW 3 10 Partly Cloudy FEW043 FEW055 SCT085 73 67     81%   74 29.92 29.91      
Jul 13 22:54 SW 9 10 Partly Cloudy SCT095 73 67     81%   74 29.92 29.9      
Jul 13 21:54 SW 6 10 Mostly Cloudy FEW060 SCT100 BKN300 74 66     76%   75 29.91 29.9      
Jul 13 20:54 WSW 9 10 Mostly Cloudy FEW050 SCT100 BKN300 75 65     71%   76 29.9 29.89      
Jul 13 19:54 WSW 14 10 Mostly Cloudy FEW065 SCT100 BKN300 77 64     64%   77 29.9 29.89      
Jul 13 18:54 SW 16 10 Mostly Cloudy FEW070 SCT120 BKN160 79 63     58%   79 29.89 29.88      
Jul 13 17:54   10 Cloudy BKN065 OVC090 78 61     56%   78 29.9 29.89      
Jul 13 16:54 SW 17 10 Mostly Cloudy BKN110 BKN160 BKN250 81 59     47%   81 29.91 29.89   0  
Jul 13 15:54 SW 18 10 Mostly Clear FEW050 FEW150 FEW250 82 58     44%   82 29.92 29.91      
Jul 13 14:54 WSW 17 10 Partly Cloudy FEW035 FEW150 SCT250 80 60     51%   81 29.93 29.92      
Jul 13 13:54   10 Mostly Clear FEW030 FEW250 79 62     56%   79 29.94 29.93      
Jul 13 12:54   10 Mostly Clear FEW025 FEW250 78 62     58%   78 29.95 29.94      
Jul 13 11:54   10 Mostly Clear FEW022 FEW250 77 62     60%   77 29.95 29.94      
Jul 13 10:54 SW 14 10 Mostly Clear FEW020 FEW250 75 61     62%   75 29.96 29.95      
Jul 13 09:54 SW 15 10 Mostly Clear FEW012 FEW250 74 62     66%   74 29.96 29.95      
Jul 13 08:54 WSW 10 10 Mostly Clear FEW012 FEW250 72 64     76%   72 29.96 29.95      
Jul 13 07:54 SSW 9 8 Mostly Clear FEW010 FEW150 FEW220 68 64     87%     29.97 29.96      
Jul 13 06:54 SSW 7 6 Fog/Mist SCT009 SCT200 SCT250 64 62     93%     29.96 29.95      
Jul 13 06:39 SSW 7 6 Fog/Mist SCT009 SCT200 SCT250 63 61     93%     29.96        
Jul 13 05:54 SSW 6 7 Mostly Clear FEW150 FEW250 61 59     93%     29.95 29.94      
Jul 13 03:54 SSW 6 10 Mostly Clear FEW250 62 59     90%     29.94 29.93      
Jul 13 02:54 S 7 10 Mostly Clear FEW250 62 59     90%     29.94 29.93      
Jul 13 01:54 SSW 6 10 Clear   63 58     84%     29.93 29.93      
Jul 13 00:54 SSW 6 10 Partly Cloudy FEW037 SCT250 65 57     76%     29.92 29.91      
Jul 12 23:54 SW 6 10 Partly Cloudy SCT037 SCT250 66 57     73%     29.93 29.92      
Jul 12 22:54 WSW 7 10 Partly Cloudy SCT030 SCT250 67 57     71%     29.93 29.92      
Jul 12 21:54 W 7 10 Mostly Cloudy BKN031 BKN250 68 57     68%     29.93 29.92      
Jul 12 20:54 W 9 10 Mostly Cloudy FEW026 BKN032 BKN065 70 58     66%     29.91 29.9      
Jul 12 19:54 SW 10 10 Mostly Cloudy BKN038 BKN065 70 59     68%     29.9 29.89     0
Jul 12 18:54 SW 14 10 Cloudy SCT028 OVC040 71 59     66%   71 29.89 29.88      
Jul 12 18:21 WSW 11 10 Cloudy SCT025 OVC035 71 59     66%   71 29.89        
Jul 12 17:54 W 11 10 Cloudy BKN028 OVC041 71 60     68%   71 29.89 29.88      
Jul 12 16:54 WNW 6 10 Cloudy OVC026 71 59     66%   71 29.89 29.88 0 0  
Jul 12 15:54 SW 13 10 Cloudy SCT018 BKN026 OVC032 71 62     73%   71 29.89 29.88      
Jul 12 14:54 W 6 10 Cloudy FEW021 OVC025 71 60     68%   71 29.89 29.88      
Jul 12 14:39 WSW 13 10 Cloudy FEW019 BKN026 OVC041 69 61     75%     29.89        
Jul 12 13:54 W 13 10 Cloudy SCT026 BKN033 OVC044 72 62     71%   72 29.88 29.88      
Jul 12 13:03 SW 10 10 Cloudy SCT025 BKN030 OVC044 70 62     76%     29.89        
Jul 12 12:54 WSW 10 10 Cloudy BKN023 BKN030 OVC043 70 61     73%     29.89 29.88      
Jul 12 12:50 WSW 13 10 Cloudy BKN023 BKN030 OVC040 70 61     73%     29.89        
Jul 12 12:26 SW 10 10 Cloudy FEW022 OVC039 69 61     75%     29.89        
Jul 12 11:54 SW 11 10 Cloudy BKN019 OVC026 69 61     75%     29.88 29.87      
Jul 12 10:54 W 8 10 Cloudy OVC019 69 61     75%     29.87 29.86      
Jul 12 10:32 W 11 10 Cloudy OVC015 68 60     76%     29.87        
Jul 12 09:54 W 8 10 Cloudy BKN014 OVC020 67 60     79%     29.86 29.85      
Jul 12 08:54 W 9 10 Cloudy BKN014 OVC020 66 59     78%     29.86 29.85      
Jul 12 08:20 W 11 10 Cloudy OVC014 65 59     81%     29.86        
Jul 12 07:54 W 10 10 Cloudy OVC015 65 58     78%     29.85 29.84      
Jul 12 07:36 W 11 10 Cloudy OVC015 65 58     78%     29.84        
Jul 12 07:07 W 9 10 Cloudy OVC013 64 58     81%     29.84        
Jul 12 06:54 WNW 9 10 Cloudy OVC015 64 58     81%     29.84 29.83      
Jul 12 05:54 WSW 9 10 Cloudy OVC018 64 56     75%     29.82 29.81      
Jul 12 04:54 W 9 10 Mostly Cloudy BKN022 64 55     73%     29.82 29.8      
Jul 12 04:09 W 8 10 Cloudy BKN024 OVC039 63 56     78%     29.81        
Jul 12 03:54 WSW 6 10 Mostly Cloudy BKN038 63 56     78%     29.81 29.8      
Jul 12 02:54 WNW 6 10 Mostly Cloudy BKN033 63 55     75%     29.81 29.8      
Jul 12 01:54 WNW 10 10 Partly Cloudy SCT033 65 55     70%     29.81 29.79      
Jul 12 00:54 NW 9 10 Mostly Clear FEW060 FEW300 66 55     68%     29.8 29.79      
Jul 11 23:54 NW 7 10 Mostly Cloudy FEW045 FEW060 FEW200 BKN290 69 57     65%     29.79 29.78      
Jul 11 22:54 WNW 9 10 Mostly Cloudy FEW046 SCT060 SCT180 BKN270 71 58     63%   71 29.79 29.78      
Jul 11 21:54 NNW 14 10 Mostly Cloudy FEW048 SCT060 BKN075 BKN170 BKN270 74 59     60%   74 29.79 29.78      
Jul 11 20:54 NNW 10 10 Mostly Cloudy SCT044 BKN070 BKN150 BKN270 76 62     62%   76 29.78 29.77      
Jul 11 20:28   10 Mostly Cloudy BKN033 BKN065 BKN140 BKN270 77 63     62%   77 29.78        
Jul 11 20:18 NW 13 10 Thunderstorms SCT026 BKN033 BKN070 BKN170 BKN270 76 68     76%   77 29.78        
Jul 11 19:54 SW 9 10 Mostly Cloudy SCT028 SCT034 BKN065 BKN170 BKN280 75 69     82%   76 29.76 29.74      
Jul 11 18:54   10 Cloudy FEW026 SCT032 SCT055 BKN170 OVC280 78 68     71%   79 29.75 29.73      
Jul 11 17:54   10 Cloudy FEW021 BKN031 OVC050 79 69     72%   80 29.75 29.73      
Jul 11 16:54 WSW 15 10 Cloudy FEW035 SCT060 BKN150 BKN210 OVC270 81 68     65%   84 29.73 29.72      
Jul 11 15:54 WSW 14 10 Cloudy FEW060 SCT150 BKN200 OVC250 82 67     60%   85 29.74 29.72      
Jul 11 14:54 SW 15 10 Mostly Cloudy FEW060 FEW150 BKN200 BKN250 83 66     57%   85 29.74 29.72      
Jul 11 13:54 WSW 13 10 Mostly Cloudy FEW060 FEW150 BKN200 82 68     63%   85 29.77 29.75      
Jul 11 12:54   10 Mostly Cloudy FEW060 SCT150 BKN200 79 66     65%   80 29.8 29.78      
Jul 11 11:54 SW 14 10 Cloudy FEW045 FEW055 SCT150 OVC200 78 67     69%   79 29.81 29.8      
Jul 11 10:54   10 Cloudy FEW045 SCT055 SCT150 OVC200 79 67     67%   80 29.82 29.8      
Jul 11 09:54 SSW 14 10 Mostly Cloudy FEW050 SCT150 BKN200 80 68     67%   83 29.83 29.81      
Jul 11 08:54 SSW 9 10 Cloudy FEW050 FEW150 OVC200 77 68     74%   78 29.83 29.82      
Jul 11 07:54 S 7 10 Cloudy FEW050 OVC180 76 68     76%   77 29.83 29.81     0
Jul 11 06:54 S 8 10 Cloudy FEW050 OVC170 74 68     82%   75 29.84 29.82      
Jul 11 05:54 SSE 8 10 Mostly Cloudy BKN050 BKN150 BKN250 74 68     82%   75 29.84 29.82      
Jul 11 04:54 S 7 10 Mostly Cloudy SCT050 BKN150 BKN250 74 69     85%   75 29.85 29.83 0 0  
Jul 11 02:54 S 7 10 Mostly Cloudy BKN180 BKN250 75 67     76%   76 29.85 29.83      
Jul 11 01:54 S 5 10 Mostly Cloudy BKN180 BKN250 74 66     76%   75 29.86 29.84      
Jul 11 00:54 SSE 8 10 Partly Cloudy SCT170 SCT250 76 66     71%   77 29.88 29.86      
Jul 10 23:54 SSW 6 10 Partly Cloudy FEW090 SCT250 76 67     74%   77 29.9 29.88      
Jul 10 22:54 SSW 7 10 Partly Cloudy SCT110 SCT250 76 68     76%   77 29.91 29.89      
Jul 10 21:54 SW 7 10 Mostly Cloudy FEW045 BKN090 BKN250 78 67     69%   79 29.92 29.9      
Jul 10 20:54 SW 7 10 Mostly Cloudy FEW045 BKN090 BKN200 BKN250 79 68     69%   80 29.91 29.89      
Jul 10 18:54 SW 13 10 Mostly Cloudy FEW045 FEW085 BKN100 BKN150 BKN220 BKN260 86 66     51%   88 29.92 29.9      
Jul 10 17:54 W 6 10 Mostly Cloudy FEW045 BKN090 BKN180 BKN250 89 66     47%   92 29.92 29.91      
Jul 10 16:54 WSW 9 10 Mostly Clear FEW050 FEW200 FEW250 89 66     47%   92 29.93 29.91      
Jul 10 15:54 WSW 9 10 Mostly Clear FEW055 FEW250 89 66     47%   92 29.95 29.93      
Jul 10 14:54   10 Mostly Clear FEW055 FEW250 89 66     47%   92 29.95 29.94      
Jul 10 13:54 7 10 Mostly Clear FEW055 FEW250 88 64     45%   89 29.97 29.95      
Jul 10 12:54 SW 10 10 Clear   87 63     45%   88 29.98 29.97      
Jul 10 11:54 SW 9 10 Mostly Clear FEW045 FEW250 86 64     48%   87 30 29.98      
Jul 10 10:54 SW 8 10 Mostly Clear FEW035 FEW250 84 65     53%   86 30.01 29.99      
Jul 10 09:54 WSW 6 10 Mostly Clear FEW030 FEW250 80 65     60%   82 30.02 30.01      
Jul 10 08:54 SSW 6 10 Clear CLR 76 66     71%   77 30.03 30.02      
Jul 10 07:54 Calm 10 Mostly Clear FEW050 71 63     76%   71 30.03 30.01      
Jul 10 06:54 Calm 10 Mostly Clear FEW049 67 61     81%     30.03 30.02      
Jul 10 05:54 E 3 10 Mostly Clear FEW048 66 60     81%     30.02 30.01      
Jul 10 04:54 SSE 3 10 Clear CLR 66 60     81%     30.01 30      
Jul 10 03:54 SE 3 10 Mostly Clear FEW300 67 60     79%     30.01 30      
Jul 10 02:54 S 6 10 Mostly Cloudy BKN300 67 60     79%     30.03 30.01      
Jul 10 01:54 S 5 10 Mostly Cloudy BKN300 68 61     78%     30.03 30.02      
Jul 10 00:54 SSE 3 10 Partly Cloudy SCT300 69 61     75%     30.03 30.02      
Jul 09 23:54 S 3 10 Partly Cloudy SCT300 71 58     63%   71 30.04 30.03      
Jul 09 22:54 Calm 10 Partly Cloudy SCT300 72 56     57%   72 30.04 30.03      
Jul 09 21:54 N 5 10 Clear   72 56     57%   72 30.05 30.04      
Jul 09 20:54 N 3 10 Mostly Cloudy BKN290 75 57     54%   75 30.04 30.03      
Jul 09 19:54 N 3 10 Mostly Cloudy BKN290 81 56     42%   81 30.03 30.02      
Jul 09 18:54 W 9 10 Mostly Cloudy BKN290 82 55     40%   81 30.03 30.03      
Jul 09 17:54 WSW 7 10 Cloudy OVC290 83 53     36%   82 30.04 30.03      
Jul 09 16:54 SW 6 10 Cloudy OVC280 83 49     31%   81 30.04 30.03      
Jul 09 15:54 Calm 10 Cloudy OVC280 83 51     33%   81 30.06 30.05      
Jul 09 14:54 NNE 6 10 Mostly Cloudy BKN300 82 50     33%   81 30.07 30.06      
Jul 09 13:54 Calm 10 Mostly Cloudy BKN300 81 50     34%   80 30.07 30.06      
Notice The following observation data may not be complete
May 15 10:12 W 10 10 Light Rain FEW008 BKN023 OVC070   62      %     29.83   0    
May 14 09:35 SSW 11 10 Cloudy OVC005 59 54     83%     29.99        
Notice The following observation data may not be complete
May 14 07:54   0.25 Fog VV002          %              
May 14 04:20 SW 9 0.75 Fog/Mist VV002 56 52     87%     29.96        
May 13 23:54 SW 10 10 Mostly Cloudy BKN007 59 52     78%     29.97 29.97      
May 13 23:24 SW 9 10 Partly Cloudy FEW010 SCT025 59 51     75%     29.97        
May 13 23:09 SW 8 10 Mostly Cloudy FEW013 BKN028 59 51     75%     29.97        
May 12 14:54 NNE 8 10 Mostly Cloudy BKN070 58 41     53%     30.08 30.09      
Jun 11 23:54 S 8 10 Clear CLR 71 57     61%   71 29.98 29.96      
Jun 11 18:54 WSW 16 10 Mostly Clear FEW250 77 58     52%   77 30 29.99      
Jun 11 17:54   10 Mostly Clear FEW250 81 57     44%   81 30 29.99      
Jun 11 16:54   10 Mostly Clear FEW250 79 58     49%   79 30.01 29.99      
Jun 10 01:54 SSW 3 10 Mostly Cloudy SCT050 BKN080 BKN200 64 51     63%     29.86 29.85      
Jun 09 23:54 SW 6 10 Mostly Cloudy BKN090 BKN140 BKN300 64 52     65%     29.86 29.85      
Jun 09 11:54   10 Mostly Cloudy FEW039 FEW120 FEW180 FEW220 BKN270 68 50     53%     29.82 29.82      
Jun 09 01:54 S 7 10 Mostly Clear FEW250 56 50     80%     29.81 29.8      
Jun 08 02:54 SSE 5 10 Clear CLR 52 44     74%     30.05 30.05      
Jun 06 11:54 NNW 13 10 Mostly Cloudy SCT008 SCT016 BKN035 61 55     81%     29.78 29.77 0    
Jun 06 04:54 WNW 7 9 Light Rain OVC010 56 53     90%     29.73 29.73 0 0